Station WPTW1 - 9441102 - Westport, WA Image indicating link to RSS feed of recent meteorological observations for station WPTW1


Conditions at WPTW1 as of
(3:36 pm PDT)
2236 GMT on 05/17/2024:
     

Click on the graph icon in the table below to see a time series plot of the last five days of that observation.

5-day plot - Wind Direction Wind Direction (WDIR):WNW ( 300 deg true )
5-day plot - Wind Speed Wind Speed (WSPD): 9.9 kts
5-day plot - Wind Gust Wind Gust (GST): 13.0 kts
5-day plot - Atmospheric Pressure Atmospheric Pressure (PRES):30.21 in
5-day plot - Air Temperature Air Temperature (ATMP): 52.3 °F
5-day plot - Water Temperature Water Temperature (WTMP): 55.0 °F
5-day plot - Wind Chill Wind Chill (CHILL): 48.6 °F
5-day plot - Wind Speed at 10 Meters Wind Speed at 10 meters (WSPD10M): 9.7 kts
5-day plot - Wind Speed at 20 Meters Wind Speed at 20 meters (WSPD20M): 9.7 kts
5-day plot -  Wind Speed, Wind Gust and Atmospheric Pressure Combined plot of Wind Speed, Gust, and Air Pressure
NOS Water Level Observation Network Water Level
Previous observations
TIME
(PDT)
5-day plot - Wind Direction
WDIR
 
5-day plot - Wind Speed
WSPD
kts
5-day plot - Wind Gust
GST
kts
5-day plot - Wave Height
WVHT
ft
5-day plot - Dominant Wave Period
DPD
sec
5-day plot - Average Wave Period
APD
sec
5-day plot - Mean Wave Direction
MWD
 
5-day plot - Atmospheric Pressure
PRES
in
5-day plot - Pressure Tendency
PTDY
in
5-day plot - Air Temperature
ATMP
°F
5-day plot - Water Temperature
WTMP
°F
5-day plot - Dew Point
DEWP
°F
5-day plot - Salinity
SAL
psu
5-day plot - Visibility
VIS
nmi
5-day plot - Tide (above MLLW)
TIDE
ft
2024-05-17 03:30 pmWNW 9.9 12.0----30.21- 52.5 55.0----
2024-05-17 03:24 pmWNW 11.1 12.0----30.21- 52.3 55.0----
2024-05-17 03:18 pmWNW 9.9 12.0----30.21- 52.9 55.0----
2024-05-17 03:12 pmWNW 8.9 12.0----30.21- 52.5 55.0----
2024-05-17 03:06 pmWNW 9.9 11.1----30.21- 52.3 55.0----
2024-05-17 03:00 pmWNW 8.9 13.0----30.21+0.00 52.7 55.0----
2024-05-17 02:54 pmWNW 11.1 13.0----30.21- 52.7 55.0----
2024-05-17 02:48 pmWNW 9.9 11.1----30.21- 52.5 55.0----
2024-05-17 02:42 pmWNW 8.9 11.1----30.21- 52.9 55.0----
2024-05-17 02:36 pm NW 8.0 12.0----30.21- 53.4 55.0----
2024-05-17 02:30 pmWNW 8.9 12.0----30.21- 52.7 55.0----
2024-05-17 02:24 pmWNW 8.9 12.0----30.21- 52.7 55.0----
2024-05-17 02:18 pmWNW 9.9 12.0----30.21- 52.5 55.0----
2024-05-17 02:12 pm NW 11.1 12.0----30.21- 52.2 55.2----
2024-05-17 02:06 pmWNW 11.1 13.0----30.22- 52.3 55.2----
2024-05-17 02:00 pmWNW 11.1 12.0----30.21+0.02 52.7 55.2----
2024-05-17 01:54 pmWNW 11.1 12.0----30.22- 52.0 55.2----
2024-05-17 01:48 pm NW 11.1 12.0----30.22- 52.0 55.2----
2024-05-17 01:42 pmWNW 8.9 9.9----30.22- 52.2 55.2----
2024-05-17 01:36 pmWNW 9.9 13.0----30.22- 52.3 55.2----
2024-05-17 01:30 pmWNW 11.1 13.0----30.21- 52.9 55.2----
2024-05-17 01:24 pmWNW 9.9 12.0----30.21- 52.9 55.2----
2024-05-17 01:18 pmWNW 9.9 12.0----30.21- 52.9 55.2----
2024-05-17 01:12 pmWNW 8.0 9.9----30.21- 53.1 55.2----
2024-05-17 01:06 pmWNW 8.0 12.0----30.21- 52.9 55.2----
2024-05-17 01:00 pmWNW 8.9 12.0----30.21+0.02 52.7 55.2----
2024-05-17 12:54 pmWNW 8.0 11.1----30.21- 52.3 55.2----
2024-05-17 12:48 pmWNW 7.0 8.9----30.21- 52.3 55.2----
2024-05-17 12:42 pmWNW 8.0 8.9----30.21- 52.2 55.2----
2024-05-17 12:36 pmWNW 8.0 9.9----30.21- 51.4 55.2----
2024-05-17 12:30 pmWNW 8.9 12.0----30.21- 51.3 55.2----
2024-05-17 12:24 pmWNW 9.9 13.0----30.21- 51.8 55.0----
2024-05-17 12:18 pmWNW 8.0 9.9----30.21- 52.2 54.9----
2024-05-17 12:12 pmWNW 8.9 11.1----30.21- 52.5 54.7----
2024-05-17 12:06 pmWNW 9.9 12.0----30.21- 52.5 54.5----
2024-05-17 12:00 pmWNW 8.0 12.0----30.21+0.03 52.3 54.5----
2024-05-17 11:54 amWNW 9.9 11.1----30.21- 52.7 54.3----
2024-05-17 11:48 amWNW 8.9 11.1----30.21- 52.7 54.5----
2024-05-17 11:42 amWNW 9.9 14.0----30.21- 52.7 54.5----
2024-05-17 11:36 am NW 9.9 12.0----30.20- 52.9 54.3----
2024-05-17 11:30 am NW 9.9 12.0----30.20- 52.5 54.1----
2024-05-17 11:24 amNNW 9.9 13.0----30.20- 52.3 54.1----
2024-05-17 11:18 am NW 8.0 11.1----30.20- 52.7 54.0----
2024-05-17 11:12 am NW 9.9 12.0----30.20- 51.8 54.0----
2024-05-17 11:06 am NW 9.9 12.0----30.20- 51.1 54.0----
2024-05-17 11:00 amWNW 8.0 11.1----30.19+0.04 51.1 53.8----
2024-05-17 10:54 am NW 8.0 9.9----30.19- 50.5 53.8----
2024-05-17 10:48 amWNW 8.9 11.1----30.19- 50.0 53.6----
2024-05-17 10:42 amWNW 9.9 11.1----30.19- 49.6 53.4----
2024-05-17 10:36 am NW 9.9 15.0----30.19- 50.0 53.2----
2024-05-17 10:30 am NW 13.0 15.0----30.19- 50.4 53.1----
2024-05-17 10:24 am NW 9.9 11.1----30.19- 50.9 52.9----
2024-05-17 10:18 amWNW 8.0 9.9----30.19- 51.1 52.9----
2024-05-17 10:12 amWNW 8.0 12.0----30.19- 51.3 52.9----
2024-05-17 10:06 amWNW 11.1 13.0----30.19- 51.6 52.9----
2024-05-17 10:00 amWNW 11.1 15.0----30.19+0.05 52.3 52.9----
2024-05-17 09:54 am NW 12.0 15.0----30.19- 51.6 53.1----
2024-05-17 09:48 amWNW 8.9 12.0----30.19- 52.0 53.2----
2024-05-17 09:42 amWNW 9.9 12.0----30.19- 52.0 53.2----
2024-05-17 09:36 amWNW 11.1 12.0----30.18- 52.0 53.2----
2024-05-17 09:30 amWNW 9.9 12.0----30.19- 52.0 53.1----
2024-05-17 09:24 amWNW 9.9 12.0----30.18- 51.3 53.1----
2024-05-17 09:18 amWNW 11.1 13.0----30.18- 51.6 53.1----
2024-05-17 09:12 amWNW 12.0 13.0----30.18- 51.6 53.1----
2024-05-17 09:06 amWNW 13.0 15.0----30.18- 51.4 53.2----
2024-05-17 09:00 amWNW 14.0 15.9----30.18+0.06 51.3 53.2----
2024-05-17 08:54 am NW 15.0 17.1----30.17- 50.9 53.4----
2024-05-17 08:48 amWNW 14.0 15.9----30.17- 50.7 53.4----
2024-05-17 08:42 am NW 15.0 17.1----30.17- 51.4 53.4----
2024-05-17 08:36 am NW 15.0 18.1----30.17- 51.4 53.4----
2024-05-17 08:30 am NW 12.0 14.0----30.16- 50.7 53.4----
2024-05-17 08:24 am NW 11.1 15.0----30.16- 50.4 53.4----
2024-05-17 08:18 am NW 12.0 14.0----30.16- 50.0 53.4----
2024-05-17 08:12 am NW 12.0 15.0----30.16- 50.0 53.6----
2024-05-17 08:06 am NW 14.0 15.0----30.16- 49.8 53.6----
2024-05-17 08:00 amWNW 12.0 14.0----30.16+0.06 50.2 53.8----
2024-05-17 07:54 amWNW 14.0 15.0----30.16- 50.2 53.4----
2024-05-17 07:48 amWNW 14.0 15.9----30.15- 50.2 53.4----
2024-05-17 07:42 amWNW 15.0 15.9----30.15- 50.2 53.4----
2024-05-17 07:36 amWNW 15.0 18.1----30.15- 50.2 53.4----
2024-05-17 07:30 amWNW 18.1 20.0----30.15- 50.2 53.6----
2024-05-17 07:24 am NW 17.1 19.0----30.15- 50.2 53.8----
2024-05-17 07:18 am NW 17.1 21.0----30.15- 50.2 54.0----
2024-05-17 07:12 am NW 15.9 20.0----30.15- 50.4 54.1----
2024-05-17 07:06 am NW 18.1 20.0----30.14- 50.4 54.1----
2024-05-17 07:00 am NW 15.9 22.0----30.14+0.05 50.4 54.1----
2024-05-17 06:54 am NW 18.1 22.0----30.14- 50.4 54.1----
2024-05-17 06:48 am NW 18.1 21.0----30.13- 50.4 54.1----
2024-05-17 06:42 am NW 17.1 22.0----30.13- 50.4 54.1----
2024-05-17 06:36 am NW 17.1 20.0----30.13- 50.4 54.0----
2024-05-17 06:30 amWNW 15.9 19.0----30.13- 50.2 54.1----
2024-05-17 06:24 amWNW 17.1 19.0----30.12- 50.2 54.1----
2024-05-17 06:18 am NW 19.0 21.0----30.12- 50.2 54.0----
2024-05-17 06:12 amWNW 18.1 21.0----30.12- 50.2 54.0----
2024-05-17 06:06 amWNW 19.0 22.0----30.12- 50.2 54.0----
2024-05-17 06:00 amWNW 19.0 22.0----30.12+0.04 50.2 54.0----
2024-05-17 05:54 am NW 19.0 21.0----30.12- 50.0 54.0----
2024-05-17 05:48 am NW 18.1 21.0----30.12- 50.0 54.0----
2024-05-17 05:42 am NW 18.1 20.0----30.11- 50.0 54.1----
2024-05-17 05:36 am NW 17.1 20.0----30.11- 50.0 54.3----
2024-05-17 05:30 am NW 17.1 20.0----30.11- 50.0 54.5----
2024-05-17 05:24 am NW 17.1 22.9----30.11- 50.0 54.5----
2024-05-17 05:18 am NW 17.1 21.0----30.11- 50.0 54.3----
2024-05-17 05:12 am NW 18.1 22.9----30.11- 50.0 54.3----
2024-05-17 05:06 am NW 20.0 22.9----30.11- 50.0 54.3----
2024-05-17 05:00 am NW 17.1 19.0----30.10+0.03 50.0 54.3----
2024-05-17 04:54 am NW 18.1 22.9----30.10- 50.2 54.3----
2024-05-17 04:48 am NW 17.1 20.0----30.10- 50.0 54.3----
2024-05-17 04:42 am NW 15.9 20.0----30.10- 50.0 54.1----
2024-05-17 04:36 am NW 17.1 21.0----30.10- 50.0 54.0----
2024-05-17 04:30 am NW 19.0 22.9----30.10- 50.2 54.0----
2024-05-17 04:24 am NW 15.9 22.9----30.10- 50.2 54.0----
2024-05-17 04:18 am NW 19.0 22.9----30.09- 50.0 54.1----
2024-05-17 04:12 am NW 20.0 24.1----30.09- 50.0 54.1----
2024-05-17 04:06 am NW 15.9 20.0----30.09- 50.0 54.0----
2024-05-17 04:00 am NW 15.9 19.0----30.09+0.04 50.0 54.1----
2024-05-17 03:54 am NW 15.9 19.0----30.09- 50.0 54.1----
2024-05-17 03:48 am NW 18.1 20.0----30.09- 50.0 54.1----
2024-05-17 03:42 am NW 17.1 20.0----30.09- 50.0 54.1----
2024-05-17 03:36 am NW 19.0 25.1----30.09- 50.0 54.1----
2024-05-17 03:30 am NW 22.9 26.0----30.08- 50.0 54.1----
2024-05-17 03:24 am NW 22.9 25.1----30.08- 50.0 54.1----
2024-05-17 03:18 am NW 20.0 22.9----30.08- 49.8 54.1----
2024-05-17 03:12 am NW 20.0 25.1----30.08- 49.8 54.1----
2024-05-17 03:06 am NW 20.0 25.1----30.08- 50.0 54.1----
2024-05-17 03:00 am NW 20.0 22.0----30.08+0.03 50.0 54.1----
2024-05-17 02:54 am NW 18.1 22.0----30.08- 49.8 54.1----
2024-05-17 02:48 am NW 21.0 25.1----30.08- 50.0 54.1----
2024-05-17 02:42 am NW 20.0 24.1----30.08- 49.8 54.1----
2024-05-17 02:36 am NW 19.0 22.0----30.08- 50.0 54.1----
2024-05-17 02:30 am NW 18.1 20.0----30.08- 50.0 54.1----
2024-05-17 02:24 am NW 15.9 21.0----30.08- 50.0 54.1----
2024-05-17 02:18 am NW 19.0 22.9----30.07- 49.8 54.1----
2024-05-17 02:12 am NW 19.0 22.0----30.07- 50.0 54.0----
2024-05-17 02:06 am NW 19.0 21.0----30.07- 49.8 54.0----
2024-05-17 02:00 am NW 17.1 20.0----30.07+0.03 49.8 54.1----
2024-05-17 01:54 am NW 18.1 21.0----30.07- 50.0 54.1----
2024-05-17 01:48 am NW 17.1 20.0----30.07- 50.0 54.3----
2024-05-17 01:42 am NW 18.1 21.0----30.07- 50.0 54.3----
2024-05-17 01:36 amNNW 20.0 22.9----30.07- 49.8 54.3----
2024-05-17 01:30 am NW 17.1 20.0----30.07- 50.0 54.3----
2024-05-17 01:24 am NW 18.1 20.0----30.07- 50.0 54.1----
2024-05-17 01:18 am NW 15.9 21.0----30.06- 50.0 54.1----
2024-05-17 01:12 am NW 15.0 21.0----30.06- 50.0 54.1----
2024-05-17 01:06 am NW 19.0 21.0----30.06- 50.0 54.3----
2024-05-17 01:00 am NW 20.0 22.0----30.06+0.04 50.0 54.9----
2024-05-17 12:54 am NW 19.0 22.9----30.06- 50.2 54.9----
2024-05-17 12:48 am NW 21.0 27.0----30.06- 50.2 54.7----
2024-05-17 12:42 am NW 19.0 22.0----30.06- 50.2 54.7----
2024-05-17 12:36 am NW 18.1 22.9----30.05- 50.2 54.7----
2024-05-17 12:30 am NW 17.1 22.9----30.05- 50.4 54.5----
2024-05-17 12:24 am NW 19.0 21.0----30.05- 50.4 54.5----
2024-05-17 12:18 am NW 17.1 21.0----30.06- 50.5 54.5----
2024-05-17 12:12 am NW 20.0 22.9----30.05- 50.5 54.3----
2024-05-17 12:06 am NW 18.1 21.0----30.05- 50.5 54.1----
2024-05-17 12:00 am NW 15.9 20.0----30.05+0.04 50.5 54.0----
2024-05-16 11:54 pm NW 17.1 20.0----30.05- 50.5 53.6----
2024-05-16 11:48 pm NW 17.1 20.0----30.05- 50.5 53.4----
2024-05-16 11:42 pm NW 17.1 19.0----30.05- 50.4 53.4----
2024-05-16 11:36 pm NW 15.0 20.0----30.05- 50.2 53.4----
2024-05-16 11:30 pm NW 18.1 21.0----30.05- 50.2 53.2----
2024-05-16 11:24 pm NW 19.0 24.1----30.05- 50.4 52.9----
2024-05-16 11:18 pm NW 21.0 25.1----30.04- 50.2 52.3----
2024-05-16 11:12 pm NW 18.1 24.1----30.04- 50.4 52.2----
2024-05-16 11:06 pm NW 20.0 25.1----30.04- 50.4 52.2----
2024-05-16 11:00 pm NW 18.1 22.9----30.04+0.05 50.4 52.2----
2024-05-16 10:54 pm NW 18.1 21.0----30.04- 50.5 52.2----
2024-05-16 10:48 pm NW 19.0 21.0----30.03- 50.5 52.2----
2024-05-16 10:42 pm NW 19.0 22.0----30.03- 50.5 52.3----
2024-05-16 10:36 pm NW 18.1 22.0----30.03- 50.5 52.3----
2024-05-16 10:30 pm NW 19.0 22.0----30.03- 50.5 52.3----
2024-05-16 10:24 pmNNW 19.0 22.9----30.03- 50.5 52.3----
2024-05-16 10:18 pm NW 17.1 20.0----30.03- 50.5 52.5----
2024-05-16 10:12 pmNNW 18.1 21.0----30.02- 50.5 52.3----
2024-05-16 10:06 pm NW 18.1 22.0----30.02- 50.5 52.3----
2024-05-16 10:00 pm NW 18.1 22.0----30.02+0.03 50.4 52.3----
2024-05-16 09:54 pmWNW 13.0 15.0----30.02- 50.4 52.3----
2024-05-16 09:48 pm NW 12.0 14.0----30.02- 50.4 52.3----
2024-05-16 09:42 pm NW 12.0 13.0----30.01- 50.2 52.3----
2024-05-16 09:36 pm NW 12.0 13.0----30.01- 50.0 52.3----
2024-05-16 09:30 pm NW 11.1 14.0----30.01- 49.8 52.3----
2024-05-16 09:24 pm NW 12.0 15.0----30.01- 49.8 52.3----
2024-05-16 09:18 pmNNW 13.0 15.9----30.01- 49.5 52.5----
2024-05-16 09:12 pmNNW 13.0 15.0----30.01- 48.9 52.5----
2024-05-16 09:06 pmNNW 14.0 18.1----30.01- 49.1 52.3----
2024-05-16 09:00 pmNNW 18.1 22.0----30.01+0.00 49.1 52.3----
2024-05-16 08:54 pm NW 20.0 22.9----30.01- 49.1 52.9----
2024-05-16 08:48 pmNNW 21.0 25.1----30.01- 49.3 53.1----
2024-05-16 08:42 pm NW 22.0 26.0----30.00- 49.8 53.1----
2024-05-16 08:36 pmWNW 11.1 12.0----30.00- 50.5 53.1----
2024-05-16 08:30 pmWNW 11.1 12.0----30.00- 50.5 52.9----
2024-05-16 08:24 pmWNW 12.0 13.0----29.99- 50.5 52.5----
2024-05-16 08:18 pmWNW 11.1 14.0----29.99- 50.5 52.3----
2024-05-16 08:12 pmWNW 13.0 15.9----30.00- 50.4 52.3----
2024-05-16 08:06 pmWNW 13.0 15.9----30.00- 50.4 52.3----
2024-05-16 08:00 pmWNW 14.0 19.0----30.00-0.01 50.4 52.3----
2024-05-16 07:54 pmWNW 15.9 19.0----30.00- 50.5 52.5----
2024-05-16 07:48 pm NW 19.0 21.0----30.00- 50.7 52.7----
2024-05-16 07:42 pm NW 17.1 19.0----29.99- 50.5 53.1----
2024-05-16 07:36 pm NW 15.0 19.0----29.99- 50.5 53.1----
2024-05-16 07:30 pm NW 15.9 19.0----29.99- 50.5 53.4----
2024-05-16 07:24 pm NW 17.1 21.0----29.99- 50.9 53.6----
2024-05-16 07:18 pm NW 14.0 18.1----29.99- 51.6 53.8----
2024-05-16 07:12 pm NW 17.1 19.0----29.99- 51.6 53.6----
2024-05-16 07:06 pmWNW 13.0 15.0----29.99- 51.8 53.6----
2024-05-16 07:00 pm W 8.9 11.1----29.99-0.01 51.8 53.6----
2024-05-16 06:54 pmWNW 8.9 12.0----29.99- 51.8 53.8----
2024-05-16 06:48 pmWNW 11.1 13.0----29.99- 51.8 53.8----
2024-05-16 06:42 pmWNW 12.0 13.0----29.99- 51.8 54.0----
2024-05-16 06:36 pmWNW 12.0 15.0----30.00- 51.8 54.1----
2024-05-16 06:30 pmWNW 14.0 15.0----30.00- 51.6 54.1----
2024-05-16 06:24 pmWNW 13.0 15.0----30.00- 51.6 54.1----
2024-05-16 06:18 pmWNW 12.0 14.0----30.00- 51.6 54.3----
2024-05-16 06:12 pmWNW 13.0 15.9----30.00- 51.6 54.3----
2024-05-16 06:06 pmWNW 15.0 17.1----30.00- 51.4 54.3----
2024-05-16 06:00 pm NW 17.1 18.1----30.00-0.02 51.4 54.5----
2024-05-16 05:54 pm NW 15.0 17.1----30.00- 51.4 54.7----
2024-05-16 05:48 pm NW 15.0 17.1----30.00- 51.4 54.7----
2024-05-16 05:42 pm NW 15.0 15.9----30.00- 51.6 54.9----
2024-05-16 05:36 pm NW 15.0 18.1----30.00- 51.3 55.2----
2024-05-16 05:30 pm NW 15.9 19.0----30.00- 51.1 55.4----
2024-05-16 05:24 pm NW 18.1 20.0----30.01- 51.1 55.4----
2024-05-16 05:18 pm NW 15.9 19.0----30.01- 51.6 55.4----
2024-05-16 05:12 pm NW 19.0 21.0----30.01- 51.4 55.2----
2024-05-16 05:06 pmWNW 15.0 18.1----30.01- 51.8 55.2----
2024-05-16 05:00 pmWNW 15.9 19.0----30.01-0.02 51.8 55.2----
2024-05-16 04:54 pmWNW 14.0 17.1----30.01- 52.0 55.2----